Location: Julian California
(33.0790°N, 116.6010°W)
Time: 00:48:02
(UTC-07:00)

Cosmos 1758 Rocket - Pass Details

Date: 14 June 2018
Orbit: 602 x 636 km, 82.5° (Epoch: 19 June)

Event Time Altitude Azimuth Distance (km) Brightness Sun altitude
Exits shadow 22:05:36 63° 136° (SE) 705 3.5 -21.8°
Maximum altitude 22:06:05 69° 95° (E) 675 3.5 -21.8°
Drops below altitude 10° 22:10:31 10° 12° (NNE) 2,007 6.7 -22.4°
Sets 22:12:45 0° 10° (N) 2,913 7.6 -22.7°
